This is the latest recevied weather packets stored in our database for station/object W4MSI. If no packets are shown the sender has not sent any weather packets the latest 10 day(s).
| Time | Temp. | Humidity | Pressure | Rain* | Wind** | Luminosity | Snow |
|---|---|---|---|---|---|---|---|
| 1778090399 | 16.11° C | 67% | 1013 hPa | 0 mm | - | 411 W/m² | - |
| 1778090095 | 16.67° C | 65% | 1013.2 hPa | 0 mm | - | 466 W/m² | - |
| 1778089792 | 16.11° C | 70% | 1013.2 hPa | 0 mm | - | 688 W/m² | - |
| 1778089490 | 16.11° C | 67% | 1013 hPa | 0 mm | - | 675 W/m² | - |
| 1778089186 | 16.11° C | 69% | 1012.9 hPa | 0 mm | - | 782 W/m² | - |
| 1778088884 | 15.56° C | 72% | 1012.8 hPa | 0 mm | - | 574 W/m² | - |
| 1778088581 | 16.11° C | 73% | 1012.7 hPa | 0 mm | - | 504 W/m² | - |
| 1778088278 | 16.11° C | 70% | 1012.9 hPa | 0 mm | - | 617 W/m² | - |
| 1778087975 | 15° C | 73% | 1012.7 hPa | 0 mm | - | 652 W/m² | - |
| 1778087672 | 15° C | 71% | 1012.7 hPa | 0 mm | - | 765 W/m² | - |
| 1778087370 | 15.56° C | 69% | 1012.9 hPa | 0 mm | - | 704 W/m² | - |
| 1778087066 | 15° C | 72% | 1013.2 hPa | 0 mm | - | 660 W/m² | - |
| 1778086765 | 15° C | 71% | 1013.4 hPa | 0 mm | - | 574 W/m² | - |
| 1778086463 | 14.44° C | 72% | 1013.5 hPa | 0 mm | - | 580 W/m² | - |
| 1778086159 | 14.44° C | 75% | 1013.7 hPa | 0 mm | - | 375 W/m² | - |
| 1778085856 | 14.44° C | 69% | 1013.7 hPa | 0 mm | - | 454 W/m² | - |
| 1778085554 | 14.44° C | 70% | 1013.8 hPa | 0 mm | - | 384 W/m² | - |
| 1778085254 | 13.89° C | 70% | 1014 hPa | 0 mm | - | 385 W/m² | - |
| 1778084949 | 13.89° C | 73% | 1013.9 hPa | 0 mm | - | 446 W/m² | - |
| 1778084647 | 14.44° C | 71% | 1013.9 hPa | 0 mm | - | 382 W/m² | - |
| 1778084344 | 14.44° C | 75% | 1013.9 hPa | 0 mm | - | 360 W/m² | - |
| 1778084042 | 13.89° C | 76% | 1014 hPa | 0 mm | - | 460 W/m² | - |
| 1778083739 | 13.33° C | 77% | 1014.2 hPa | 0 mm | - | 573 W/m² | - |
| 1778083436 | 13.33° C | 80% | 1014 hPa | 0 mm | - | 351 W/m² | - |
| 1778083135 | 13.33° C | 79% | 1014 hPa | 0 mm | - | 199 W/m² | - |
* Rain latest hour (hover to see other rain measurements)
** Current wind speed in m/s (hover to see current wind gust speed)